| time (UTC) | temp F | wind direction | speed MPH | gust MPH | rain 1hr in | rain 24hr in | rain mn in | humidity % | barometer mb |
| 20260507211555 | 54 | 0 | 0.0 | 0.0 | 0.00 | 0.05 | 0.04 | 83 | 1011.7 |
| 20260507211048 | 54 | 0 | 0.0 | 0.0 | 0.00 | 0.05 | 0.04 | 84 | 1011.6 |
| 20260507210549 | 54 | 0 | 0.0 | 0.0 | 0.00 | 0.05 | 0.04 | 84 | 1011.5 |
| 20260507210059 | 54 | 0 | 0.0 | 0.0 | 0.00 | 0.05 | 0.04 | 84 | 1011.6 |
| 20260507205548 | 54 | 0 | 0.0 | 3.0 | 0.00 | 0.05 | 0.04 | 82 | 1011.5 |
| 20260507205047 | 54 | 0 | 0.0 | 3.0 | 0.00 | 0.05 | 0.04 | 82 | 1011.7 |
| 20260507204607 | 54 | 96 | 1.0 | 3.0 | 0.00 | 0.05 | 0.04 | 82 | 1011.5 |
| 20260507204051 | 54 | 0 | 0.0 | 3.0 | 0.00 | 0.05 | 0.04 | 82 | 1011.5 |
| 20260507203548 | 54 | 101 | 1.0 | 3.0 | 0.00 | 0.05 | 0.04 | 82 | 1011.5 |
| 20260507203050 | 53 | 125 | 0.0 | 3.0 | 0.00 | 0.05 | 0.04 | 82 | 1011.6 |
| 20260507202548 | 53 | 134 | 0.0 | 3.0 | 0.00 | 0.05 | 0.04 | 82 | 1011.7 |
| 20260507202048 | 53 | 117 | 1.0 | 3.0 | 0.00 | 0.05 | 0.04 | 82 | 1011.6 |
| 20260507201551 | 53 | 103 | 1.0 | 4.0 | 0.00 | 0.05 | 0.04 | 83 | 1011.7 |
| 20260507201051 | 53 | 103 | 1.0 | 4.0 | 0.00 | 0.05 | 0.04 | 82 | 1011.6 |
| 20260507200548 | 53 | 111 | 2.0 | 7.0 | 0.00 | 0.05 | 0.04 | 83 | 1011.6 |
| 20260507200050 | 53 | 130 | 2.0 | 7.0 | 0.00 | 0.05 | 0.04 | 82 | 1011.8 |
| 20260507195548 | 53 | 136 | 3.0 | 7.0 | 0.00 | 0.05 | 0.04 | 82 | 1012.0 |
| 20260507195049 | 53 | 150 | 2.0 | 7.0 | 0.00 | 0.05 | 0.04 | 83 | 1012.0 |
| 20260507194548 | 53 | 101 | 3.0 | 7.0 | 0.00 | 0.05 | 0.04 | 85 | 1012.0 |
| 20260507194047 | 53 | 142 | 3.0 | 6.0 | 0.00 | 0.05 | 0.04 | 85 | 1012.1 |
| 20260507193547 | 53 | 165 | 4.0 | 7.0 | 0.00 | 0.05 | 0.04 | 86 | 1012.2 |
| 20260507193101 | 53 | 126 | 3.0 | 8.0 | 0.00 | 0.05 | 0.04 | 86 | 1012.1 |
| 20260507192550 | 53 | 140 | 4.0 | 9.0 | 0.00 | 0.05 | 0.04 | 86 | 1012.1 |
| 20260507192047 | 53 | 121 | 3.0 | 9.0 | 0.00 | 0.05 | 0.04 | 85 | 1012.4 |
| 20260507191554 | 53 | 148 | 5.0 | 8.0 | 0.00 | 0.05 | 0.04 | 85 | 1012.4 |
| 20260507191048 | 53 | 187 | 4.0 | 7.0 | 0.00 | 0.05 | 0.04 | 86 | 1012.1 |
| 20260507190548 | 53 | 131 | 4.0 | 7.0 | 0.00 | 0.05 | 0.04 | 86 | 1012.3 |
| 20260507185547 | 54 | 123 | 2.0 | 6.0 | 0.00 | 0.05 | 0.04 | 87 | 1012.4 |
| 20260507185048 | 54 | 148 | 3.0 | 6.0 | 0.00 | 0.05 | 0.04 | 86 | 1012.0 |
| 20260507184555 | 54 | 113 | 2.0 | 4.0 | 0.00 | 0.05 | 0.04 | 85 | 1012.5 |
| 20260507184049 | 54 | 106 | 2.0 | 4.0 | 0.00 | 0.05 | 0.04 | 85 | 1012.8 |
| 20260507183548 | 54 | 121 | 2.0 | 4.0 | 0.00 | 0.05 | 0.04 | 85 | 1012.8 |
| 20260507183100 | 54 | 107 | 1.0 | 4.0 | 0.00 | 0.05 | 0.04 | 85 | 1012.7 |
| 20260507182551 | 54 | 134 | 2.0 | 5.0 | 0.00 | 0.05 | 0.04 | 85 | 1012.7 |
| 20260507182048 | 54 | 100 | 1.0 | 5.0 | 0.00 | 0.05 | 0.04 | 85 | 1012.5 |
| 20260507181556 | 54 | 129 | 2.0 | 5.0 | 0.00 | 0.05 | 0.04 | 86 | 1012.7 |
| 20260507181048 | 53 | 0 | 0.0 | 4.0 | 0.00 | 0.05 | 0.04 | 86 | 1012.6 |
| 20260507180548 | 53 | 123 | 2.0 | 5.0 | 0.00 | 0.05 | 0.04 | 86 | 1012.6 |
| 20260507180105 | 53 | 86 | 0.0 | 5.0 | 0.00 | 0.05 | 0.04 | 87 | 1012.6 |
| 20260507175547 | 53 | 145 | 2.0 | 5.0 | 0.00 | 0.05 | 0.04 | 86 | 1012.8 |
| 20260507175047 | 53 | 131 | 1.0 | 5.0 | 0.00 | 0.05 | 0.04 | 87 | 1012.7 |
| 20260507174552 | 53 | 131 | 2.0 | 5.0 | 0.00 | 0.05 | 0.04 | 87 | 1012.8 |
| 20260507174053 | 53 | 76 | 1.0 | 5.0 | 0.00 | 0.05 | 0.04 | 87 | 1013.0 |
| 20260507173549 | 53 | 75 | 1.0 | 5.0 | 0.00 | 0.05 | 0.04 | 87 | 1012.9 |
| 20260507173056 | 53 | 159 | 0.0 | 7.0 | 0.00 | 0.05 | 0.04 | 88 | 1012.9 |
| 20260507172551 | 53 | 128 | 2.0 | 7.0 | 0.00 | 0.05 | 0.04 | 88 | 1013.0 |
| 20260507172049 | 53 | 144 | 2.0 | 4.0 | 0.00 | 0.05 | 0.04 | 87 | 1013.0 |
| 20260507171557 | 53 | 113 | 1.0 | 4.0 | 0.00 | 0.05 | 0.04 | 88 | 1013.0 |
| 20260507171049 | 53 | 139 | 0.0 | 3.0 | 0.00 | 0.05 | 0.04 | 88 | 1013.2 |
| 20260507170549 | 53 | 0 | 0.0 | 4.0 | 0.00 | 0.05 | 0.04 | 89 | 1013.3 |
| 20260507170059 | 53 | 0 | 0.0 | 4.0 | 0.00 | 0.05 | 0.04 | 88 | 1013.4 |
| 20260507165549 | 53 | 70 | 1.0 | 3.0 | 0.00 | 0.05 | 0.04 | 88 | 1013.4 |
| 20260507165049 | 53 | 0 | 1.0 | 3.0 | 0.00 | 0.05 | 0.04 | 88 | 1013.6 |
| 20260507164557 | 52 | 65 | 0.0 | 3.0 | 0.00 | 0.05 | 0.04 | 88 | 1013.5 |
| 20260507164050 | 52 | 107 | 1.0 | 3.0 | 0.00 | 0.05 | 0.04 | 88 | 1013.6 |
| 20260507163549 | 52 | 49 | 0.0 | 4.0 | 0.00 | 0.05 | 0.04 | 88 | 1013.7 |
| 20260507163056 | 52 | 121 | 1.0 | 7.0 | 0.00 | 0.05 | 0.04 | 88 | 1013.7 |
| 20260507162549 | 52 | 123 | 2.0 | 7.0 | 0.01 | 0.05 | 0.04 | 88 | 1013.8 |
| 20260507162053 | 52 | 148 | 4.0 | 9.0 | 0.01 | 0.05 | 0.04 | 88 | 1013.8 |
| 20260507161559 | 52 | 98 | 3.0 | 9.0 | 0.01 | 0.05 | 0.04 | 89 | 1013.8 |
| 20260507161049 | 52 | 146 | 4.0 | 9.0 | 0.01 | 0.05 | 0.04 | 89 | 1013.7 |
| 20260507160552 | 53 | 79 | 2.0 | 4.0 | 0.01 | 0.05 | 0.04 | 91 | 1013.7 |
| 20260507155549 | 52 | 117 | 2.0 | 6.0 | 0.01 | 0.05 | 0.04 | 91 | 1014.0 |
| 20260507155049 | 52 | 159 | 2.0 | 7.0 | 0.01 | 0.05 | 0.04 | 91 | 1014.0 |
| 20260507154555 | 52 | 95 | 3.0 | 7.0 | 0.01 | 0.05 | 0.04 | 90 | 1014.1 |
| 20260507154050 | 52 | 117 | 2.0 | 6.0 | 0.01 | 0.05 | 0.04 | 89 | 1014.4 |
| 20260507153551 | 53 | 129 | 1.0 | 5.0 | 0.01 | 0.05 | 0.04 | 91 | 1014.2 |
| 20260507153056 | 52 | 128 | 1.0 | 4.0 | 0.01 | 0.05 | 0.04 | 90 | 1014.2 |
| 20260507152550 | 52 | 131 | 1.0 | 5.0 | 0.00 | 0.04 | 0.03 | 90 | 1014.3 |
| 20260507152050 | 52 | 132 | 1.0 | 5.0 | 0.00 | 0.04 | 0.03 | 90 | 1014.2 |
| 20260507151553 | 53 | 0 | 0.0 | 2.0 | 0.00 | 0.04 | 0.03 | 90 | 1014.4 |
| 20260507151049 | 53 | 0 | 0.0 | 7.0 | 0.00 | 0.04 | 0.03 | 90 | 1014.4 |
| 20260507150551 | 52 | 0 | 0.0 | 7.0 | 0.01 | 0.04 | 0.03 | 91 | 1014.0 |
| 20260507150055 | 52 | 90 | 2.0 | 7.0 | 0.01 | 0.04 | 0.03 | 90 | 1014.0 |
| 20260507145548 | 52 | 96 | 0.0 | 3.0 | 0.01 | 0.04 | 0.03 | 91 | 1014.0 |
| 20260507145051 | 52 | 0 | 1.0 | 4.0 | 0.01 | 0.04 | 0.03 | 91 | 1014.1 |
| 20260507144555 | 52 | 0 | 0.0 | 4.0 | 0.01 | 0.04 | 0.03 | 91 | 1014.1 |
| 20260507144048 | 52 | 0 | 1.0 | 3.0 | 0.02 | 0.04 | 0.03 | 91 | 1014.0 |
| 20260507143548 | 52 | 71 | 1.0 | 4.0 | 0.02 | 0.04 | 0.03 | 91 | 1014.0 |
| 20260507143102 | 52 | 123 | 1.0 | 4.0 | 0.02 | 0.04 | 0.03 | 90 | 1014.2 |
| 20260507142548 | 52 | 0 | 1.0 | 4.0 | 0.02 | 0.04 | 0.03 | 90 | 1014.2 |
| 20260507142049 | 53 | 74 | 1.0 | 4.0 | 0.02 | 0.04 | 0.03 | 90 | 1014.6 |
| 20260507141602 | 53 | 0 | 0.0 | 5.0 | 0.02 | 0.04 | 0.03 | 90 | 1014.5 |
| 20260507141049 | 53 | 0 | 0.0 | 5.0 | 0.02 | 0.04 | 0.03 | 90 | 1014.4 |
| 20260507140549 | 53 | 47 | 1.0 | 4.0 | 0.01 | 0.03 | 0.02 | 89 | 1014.5 |
| 20260507140121 | 53 | 0 | 0.0 | 2.0 | 0.01 | 0.03 | 0.02 | 89 | 1014.4 |
| 20260507135548 | 53 | 0 | 0.0 | 3.0 | 0.01 | 0.05 | 0.02 | 90 | 1014.5 |
| 20260507135048 | 53 | 161 | 0.0 | 3.0 | 0.01 | 0.05 | 0.02 | 89 | 1014.6 |
| 20260507134551 | 53 | 0 | 1.0 | 3.0 | 0.01 | 0.05 | 0.02 | 89 | 1014.5 |
| 20260507134048 | 53 | 5 | 0.0 | 3.0 | 0.00 | 0.04 | 0.01 | 89 | 1014.5 |
| 20260507133548 | 53 | 0 | 1.0 | 4.0 | 0.00 | 0.04 | 0.01 | 89 | 1014.7 |
| 20260507133100 | 53 | 0 | 0.0 | 4.0 | 0.00 | 0.04 | 0.01 | 89 | 1014.5 |
| 20260507132547 | 53 | 109 | 2.0 | 4.0 | 0.00 | 0.04 | 0.01 | 89 | 1014.6 |
| 20260507132047 | 53 | 123 | 1.0 | 4.0 | 0.00 | 0.04 | 0.01 | 89 | 1014.6 |
| 20260507131602 | 53 | 119 | 0.0 | 4.0 | 0.00 | 0.04 | 0.01 | 89 | 1014.5 |
| 20260507131052 | 53 | 159 | 1.0 | 4.0 | 0.00 | 0.04 | 0.01 | 89 | 1014.4 |
| 20260507130548 | 53 | 136 | 1.0 | 4.0 | 0.00 | 0.04 | 0.01 | 89 | 1014.4 |
| 20260507130109 | 53 | 0 | 0.0 | 3.0 | 0.00 | 0.04 | 0.01 | 89 | 1014.4 |
| 20260507125551 | 53 | 0 | 0.0 | 3.0 | 0.00 | 0.04 | 0.01 | 89 | 1014.3 |
| 20260507125049 | 53 | 90 | 0.0 | 3.0 | 0.00 | 0.04 | 0.01 | 90 | 1014.1 |
| 20260507124605 | 53 | 154 | 1.0 | 3.0 | 0.00 | 0.04 | 0.01 | 90 | 1014.3 |
| 20260507124048 | 53 | 0 | 0.0 | 3.0 | 0.00 | 0.04 | 0.01 | 90 | 1014.3 |
| 20260507123549 | 53 | 0 | 0.0 | 3.0 | 0.00 | 0.04 | 0.01 | 90 | 1014.2 |
| 20260507123058 | 53 | 0 | 1.0 | 4.0 | 0.00 | 0.04 | 0.01 | 91 | 1014.2 |
| 20260507122547 | 53 | 0 | 0.0 | 4.0 | 0.00 | 0.04 | 0.01 | 91 | 1014.2 |
| 20260507122049 | 53 | 140 | 1.0 | 4.0 | 0.00 | 0.04 | 0.01 | 90 | 1014.2 |
| 20260507121551 | 53 | 0 | 1.0 | 4.0 | 0.00 | 0.04 | 0.01 | 91 | 1014.2 |
| 20260507121048 | 53 | 154 | 1.0 | 3.0 | 0.00 | 0.04 | 0.01 | 91 | 1014.3 |
| 20260507120548 | 53 | 0 | 1.0 | 3.0 | 0.00 | 0.04 | 0.01 | 91 | 1014.1 |
| 20260507120050 | 53 | 0 | 0.0 | 3.0 | 0.00 | 0.04 | 0.01 | 91 | 1014.1 |
| 20260507115548 | 53 | 93 | 1.0 | 3.0 | 0.00 | 0.04 | 0.01 | 91 | 1013.9 |
| 20260507115047 | 53 | 0 | 0.0 | 2.0 | 0.00 | 0.04 | 0.01 | 91 | 1014.1 |
| 20260507114550 | 53 | 124 | 0.0 | 5.0 | 0.00 | 0.04 | 0.01 | 91 | 1014.0 |
| 20260507114048 | 53 | 124 | 1.0 | 5.0 | 0.00 | 0.04 | 0.01 | 91 | 1013.9 |
| 20260507113547 | 53 | 111 | 1.0 | 5.0 | 0.00 | 0.04 | 0.01 | 91 | 1013.9 |
| 20260507113053 | 53 | 0 | 1.0 | 5.0 | 0.00 | 0.04 | 0.01 | 91 | 1013.8 |
| 20260507112548 | 53 | 0 | 2.0 | 5.0 | 0.00 | 0.04 | 0.01 | 91 | 1013.7 |
| 20260507112048 | 54 | 126 | 2.0 | 5.0 | 0.00 | 0.04 | 0.01 | 91 | 1013.6 |
| 20260507111556 | 54 | 32 | 1.0 | 3.0 | 0.00 | 0.04 | 0.01 | 91 | 1013.6 |
| 20260507111048 | 54 | 0 | 1.0 | 4.0 | 0.00 | 0.04 | 0.01 | 91 | 1013.7 |
| 20260507110548 | 54 | 32 | 0.0 | 4.0 | 0.00 | 0.04 | 0.01 | 91 | 1013.6 |
| 20260507110056 | 54 | 338 | 0.0 | 4.0 | 0.00 | 0.04 | 0.01 | 91 | 1013.3 |
| 20260507105547 | 54 | 105 | 0.0 | 2.0 | 0.00 | 0.04 | 0.01 | 91 | 1013.3 |
| 20260507105047 | 54 | 0 | 0.0 | 4.0 | 0.00 | 0.04 | 0.01 | 91 | 1013.1 |
| 20260507104555 | 54 | 34 | 1.0 | 6.0 | 0.00 | 0.04 | 0.01 | 91 | 1012.9 |
| 20260507104047 | 54 | 82 | 1.0 | 4.0 | 0.00 | 0.04 | 0.01 | 91 | 1012.9 |
| 20260507103548 | 54 | 24 | 1.0 | 4.0 | 0.00 | 0.04 | 0.01 | 91 | 1013.1 |
| 20260507103056 | 54 | 19 | 1.0 | 4.0 | 0.00 | 0.04 | 0.01 | 91 | 1013.0 |
| 20260507102548 | 54 | 0 | 2.0 | 4.0 | 0.00 | 0.04 | 0.01 | 91 | 1013.0 |
| 20260507102048 | 54 | 0 | 0.0 | 3.0 | 0.00 | 0.04 | 0.01 | 91 | 1013.1 |
| 20260507101557 | 54 | 36 | 1.0 | 3.0 | 0.00 | 0.04 | 0.01 | 91 | 1013.1 |
| 20260507101047 | 55 | 360 | 0.0 | 2.0 | 0.00 | 0.04 | 0.01 | 91 | 1013.1 |
| 20260507100547 | 55 | 352 | 0.0 | 2.0 | 0.00 | 0.04 | 0.01 | 92 | 1013.0 |
| 20260507100053 | 55 | 360 | 1.0 | 4.0 | 0.00 | 0.04 | 0.01 | 92 | 1012.9 |
| 20260507095549 | 55 | 0 | 1.0 | 4.0 | 0.00 | 0.04 | 0.01 | 92 | 1013.0 |
| 20260507095049 | 55 | 25 | 0.0 | 3.0 | 0.00 | 0.04 | 0.01 | 92 | 1013.1 |
| 20260507094557 | 55 | 0 | 1.0 | 3.0 | 0.00 | 0.04 | 0.01 | 92 | 1013.1 |
| 20260507094047 | 55 | 352 | 1.0 | 3.0 | 0.00 | 0.04 | 0.01 | 91 | 1013.0 |
| 20260507093548 | 55 | 346 | 0.0 | 7.0 | 0.00 | 0.04 | 0.01 | 91 | 1012.8 |
| 20260507093058 | 55 | 352 | 1.0 | 7.0 | 0.00 | 0.04 | 0.01 | 91 | 1012.5 |
| 20260507092548 | 55 | 0 | 0.0 | 3.0 | 0.00 | 0.04 | 0.01 | 91 | 1012.5 |
| 20260507092048 | 55 | 352 | 1.0 | 4.0 | 0.00 | 0.04 | 0.01 | 91 | 1012.7 |
| 20260507091559 | 55 | 28 | 0.0 | 4.0 | 0.00 | 0.04 | 0.01 | 91 | 1012.8 |
| 20260507091049 | 55 | 88 | 1.0 | 3.0 | 0.00 | 0.04 | 0.01 | 91 | 1013.0 |
| 20260507090549 | 55 | 352 | 0.0 | 7.0 | 0.00 | 0.04 | 0.01 | 91 | 1012.7 |
| 20260507090054 | 56 | 342 | 0.0 | 7.0 | 0.00 | 0.04 | 0.01 | 91 | 1012.8 |
| 20260507085550 | 56 | 134 | 2.0 | 6.0 | 0.00 | 0.04 | 0.01 | 90 | 1012.8 |
| 20260507085048 | 56 | 121 | 1.0 | 6.0 | 0.00 | 0.04 | 0.01 | 90 | 1012.8 |
| 20260507084559 | 56 | 73 | 2.0 | 6.0 | 0.00 | 0.04 | 0.01 | 90 | 1012.7 |
| 20260507084047 | 57 | 17 | 2.0 | 6.0 | 0.00 | 0.04 | 0.01 | 89 | 1012.4 |
| 20260507083549 | 57 | 340 | 2.0 | 6.0 | 0.00 | 0.04 | 0.01 | 89 | 1012.2 |
| 20260507083057 | 58 | 61 | 2.0 | 6.0 | 0.00 | 0.04 | 0.01 | 89 | 1012.2 |
| 20260507082547 | 59 | 58 | 1.0 | 5.0 | 0.00 | 0.04 | 0.01 | 89 | 1012.5 |
| 20260507082051 | 59 | 38 | 1.0 | 4.0 | 0.00 | 0.04 | 0.01 | 89 | 1012.3 |
| 20260507081555 | 60 | 352 | 1.0 | 4.0 | 0.00 | 0.04 | 0.01 | 89 | 1012.3 |
| 20260507081048 | 61 | 10 | 2.0 | 7.0 | 0.00 | 0.04 | 0.01 | 88 | 1012.1 |
| 20260507080549 | 62 | 14 | 2.0 | 7.0 | 0.00 | 0.04 | 0.01 | 87 | 1012.1 |
| 20260507080116 | 62 | 0 | 2.0 | 5.0 | 0.00 | 0.04 | 0.01 | 87 | 1011.9 |
| 20260507075551 | 63 | 352 | 3.0 | 5.0 | 0.00 | 0.04 | 0.01 | 84 | 1012.0 |
| 20260507075049 | 64 | 84 | 1.0 | 7.0 | 0.00 | 0.04 | 0.01 | 80 | 1011.9 |
| 20260507074601 | 64 | 42 | 2.0 | 7.0 | 0.00 | 0.04 | 0.01 | 76 | 1011.7 |
| 20260507074049 | 64 | 341 | 3.0 | 9.0 | 0.00 | 0.04 | 0.01 | 76 | 1011.9 |
| 20260507073549 | 63 | 0 | 2.0 | 9.0 | 0.00 | 0.04 | 0.01 | 82 | 1011.9 |
| 20260507073104 | 63 | 323 | 2.0 | 10.0 | 0.00 | 0.04 | 0.01 | 81 | 1011.9 |
| 20260507072549 | 63 | 282 | 2.0 | 10.0 | 0.00 | 0.04 | 0.01 | 85 | 1011.8 |
| 20260507072049 | 63 | 304 | 2.0 | 9.0 | 0.00 | 0.04 | 0.01 | 81 | 1011.5 |
| 20260507071602 | 62 | 281 | 1.0 | 6.0 | 0.00 | 0.04 | 0.01 | 86 | 1011.5 |
| 20260507071049 | 62 | 23 | 0.0 | 4.0 | 0.00 | 0.04 | 0.01 | 87 | 1011.4 |
| 20260507070547 | 63 | 0 | 0.0 | 8.0 | 0.00 | 0.04 | 0.01 | 88 | 1011.4 |
| 20260507070053 | 63 | 281 | 2.0 | 8.0 | 0.00 | 0.04 | 0.01 | 87 | 1011.4 |
| 20260507065548 | 62 | 317 | 2.0 | 9.0 | 0.00 | 0.04 | 0.01 | 88 | 1011.1 |
| 20260507065048 | 62 | 317 | 3.0 | 9.0 | 0.00 | 0.04 | 0.01 | 89 | 1011.1 |
| 20260507064556 | 62 | 329 | 3.0 | 9.0 | 0.00 | 0.04 | 0.01 | 91 | 1011.0 |
| 20260507064049 | 62 | 265 | 1.0 | 5.0 | 0.00 | 0.04 | 0.01 | 93 | 1011.1 |
| 20260507063549 | 62 | 0 | 0.0 | 5.0 | 0.00 | 0.04 | 0.01 | 93 | 1011.1 |
| 20260507063055 | 62 | 284 | 2.0 | 8.0 | 0.00 | 0.04 | 0.01 | 94 | 1011.5 |
| 20260507062548 | 62 | 290 | 1.0 | 8.0 | 0.00 | 0.04 | 0.01 | 94 | 1011.7 |
| 20260507062048 | 62 | 284 | 1.0 | 4.0 | 0.00 | 0.04 | 0.01 | 94 | 1011.9 |
| 20260507061553 | 62 | 131 | 1.0 | 4.0 | 0.00 | 0.04 | 0.01 | 94 | 1011.8 |
| 20260507061048 | 62 | 0 | 1.0 | 4.0 | 0.00 | 0.04 | 0.01 | 94 | 1012.1 |
| 20260507060547 | 62 | 328 | 1.0 | 4.0 | 0.00 | 0.04 | 0.01 | 94 | 1012.0 |
| 20260507060052 | 62 | 0 | 0.0 | 0.0 | 0.00 | 0.04 | 0.01 | 94 | 1011.8 |
| 20260507055547 | 62 | 0 | 0.0 | 0.0 | 0.00 | 0.04 | 0.01 | 94 | 1012.0 |
| 20260507055049 | 62 | 0 | 0.0 | 0.0 | 0.00 | 0.04 | 0.01 | 94 | 1011.7 |
| 20260507054600 | 62 | 0 | 0.0 | 0.0 | 0.00 | 0.04 | 0.01 | 94 | 1011.8 |
| 20260507054048 | 62 | 0 | 0.0 | 0.0 | 0.01 | 0.04 | 0.01 | 93 | 1012.0 |
| 20260507053548 | 62 | 0 | 0.0 | 0.0 | 0.01 | 0.04 | 0.01 | 93 | 1011.8 |
| 20260507053050 | 62 | 0 | 0.0 | 0.0 | 0.01 | 0.04 | 0.01 | 93 | 1011.5 |
| 20260507052552 | 62 | 0 | 0.0 | 0.0 | 0.01 | 0.04 | 0.01 | 93 | 1011.2 |
| 20260507052048 | 62 | 0 | 0.0 | 0.0 | 0.01 | 0.04 | 0.01 | 93 | 1011.3 |
| 20260507051553 | 62 | 0 | 0.0 | 0.0 | 0.01 | 0.04 | 0.01 | 93 | 1010.9 |
| 20260507051048 | 62 | 0 | 0.0 | 0.0 | 0.01 | 0.04 | 0.01 | 93 | 1010.7 |
| 20260507050547 | 62 | 0 | 0.0 | 0.0 | 0.01 | 0.04 | 0.01 | 93 | 1010.6 |
| 20260507050055 | 63 | 0 | 0.0 | 0.0 | 0.01 | 0.04 | 0.01 | 93 | 1010.6 |
| 20260507045549 | 63 | 0 | 0.0 | 0.0 | 0.01 | 0.04 | 0.01 | 93 | 1010.9 |
| 20260507045048 | 63 | 0 | 0.0 | 0.0 | 0.02 | 0.04 | 0.01 | 93 | 1011.0 |
| 20260507044614 | 63 | 0 | 0.0 | 0.0 | 0.02 | 0.04 | 0.01 | 92 | 1010.9 |
| 20260507044050 | 63 | 0 | 0.0 | 0.0 | 0.01 | 0.03 | 0.00 | 92 | 1011.2 |
| 20260507043548 | 63 | 0 | 0.0 | 0.0 | 0.01 | 0.03 | 0.00 | 92 | 1011.3 |
| 20260507043053 | 63 | 0 | 0.0 | 0.0 | 0.01 | 0.03 | 0.00 | 92 | 1011.5 |
| 20260507042551 | 63 | 0 | 0.0 | 0.0 | 0.01 | 0.03 | 0.00 | 92 | 1011.4 |
| 20260507042048 | 63 | 0 | 0.0 | 0.0 | 0.01 | 0.03 | 0.00 | 92 | 1011.6 |
| 20260507041600 | 63 | 0 | 0.0 | 2.0 | 0.01 | 0.03 | 0.00 | 91 | 1011.7 |
| 20260507041048 | 64 | 0 | 0.0 | 3.0 | 0.01 | 0.03 | 0.00 | 91 | 1011.8 |
| 20260507040550 | 64 | 0 | 0.0 | 3.0 | 0.01 | 0.03 | 0.00 | 91 | 1011.6 |
| 20260507040104 | 64 | 0 | 0.0 | 3.0 | 0.01 | 0.03 | 0.00 | 90 | 1011.4 |
| 20260507035549 | 64 | 0 | 1.0 | 3.0 | 0.01 | 0.03 | 0.03 | 90 | 1011.4 |
| 20260507035049 | 64 | 19 | 1.0 | 3.0 | 0.00 | 0.02 | 0.02 | 89 | 1011.2 |
| 20260507034557 | 65 | 0 | 0.0 | 3.0 | 0.00 | 0.02 | 0.02 | 88 | 1011.2 |
| 20260507034049 | 65 | 352 | 1.0 | 4.0 | 0.00 | 0.02 | 0.02 | 87 | 1011.7 |
| 20260507033549 | 65 | 5 | 2.0 | 4.0 | 0.00 | 0.02 | 0.02 | 86 | 1012.0 |
| 20260507033058 | 66 | 352 | 1.0 | 3.0 | 0.00 | 0.02 | 0.02 | 85 | 1012.0 |
| 20260507032549 | 66 | 87 | 0.0 | 5.0 | 0.00 | 0.02 | 0.02 | 84 | 1012.0 |
| 20260507032048 | 66 | 292 | 1.0 | 6.0 | 0.00 | 0.02 | 0.02 | 84 | 1012.2 |
| 20260507031548 | 66 | 0 | 2.0 | 6.0 | 0.00 | 0.02 | 0.02 | 83 | 1012.1 |
| 20260507031050 | 67 | 0 | 0.0 | 7.0 | 0.00 | 0.02 | 0.02 | 83 | 1011.9 |
| 20260507030549 | 67 | 0 | 1.0 | 7.0 | 0.00 | 0.02 | 0.02 | 82 | 1011.5 |
| 20260507030100 | 66 | 156 | 0.0 | 5.0 | 0.00 | 0.02 | 0.02 | 82 | 1011.5 |
| 20260507025549 | 66 | 167 | 2.0 | 12.0 | 0.00 | 0.02 | 0.02 | 83 | 1011.5 |
| 20260507025049 | 66 | 329 | 2.0 | 12.0 | 0.00 | 0.02 | 0.02 | 83 | 1011.6 |
| 20260507024554 | 66 | 149 | 5.0 | 12.0 | 0.00 | 0.02 | 0.02 | 83 | 1011.7 |
| 20260507024049 | 66 | 201 | 1.0 | 4.0 | 0.00 | 0.02 | 0.02 | 84 | 1011.5 |
| 20260507023552 | 65 | 0 | 0.0 | 5.0 | 0.00 | 0.02 | 0.02 | 85 | 1011.5 |
| 20260507023052 | 65 | 0 | 0.0 | 4.0 | 0.00 | 0.02 | 0.02 | 85 | 1011.6 |
| 20260507022548 | 65 | 160 | 1.0 | 4.0 | 0.00 | 0.02 | 0.02 | 85 | 1011.7 |
| 20260507022049 | 65 | 321 | 2.0 | 4.0 | 0.00 | 0.02 | 0.02 | 85 | 1011.7 |
| 20260507021551 | 65 | 0 | 0.0 | 4.0 | 0.00 | 0.02 | 0.02 | 85 | 1011.3 |
| 20260507021049 | 65 | 0 | 1.0 | 6.0 | 0.00 | 0.02 | 0.02 | 85 | 1011.2 |
| 20260507020549 | 65 | 12 | 2.0 | 6.0 | 0.00 | 0.02 | 0.02 | 85 | 1011.2 |
| 20260507015548 | 65 | 317 | 1.0 | 6.0 | 0.00 | 0.02 | 0.02 | 84 | 1010.9 |
| 20260507015048 | 65 | 153 | 0.0 | 3.0 | 0.00 | 0.02 | 0.02 | 84 | 1010.4 |
| 20260507014602 | 65 | 40 | 0.0 | 3.0 | 0.00 | 0.02 | 0.02 | 84 | 1010.7 |
| 20260507014049 | 65 | 0 | 0.0 | 2.0 | 0.00 | 0.02 | 0.02 | 84 | 1011.2 |
| 20260507013548 | 65 | 304 | 0.0 | 3.0 | 0.00 | 0.02 | 0.02 | 84 | 1011.1 |
| 20260507013051 | 65 | 0 | 0.0 | 3.0 | 0.00 | 0.02 | 0.02 | 84 | 1011.2 |
| 20260507012549 | 65 | 0 | 1.0 | 3.0 | 0.00 | 0.02 | 0.02 | 84 | 1011.3 |
| 20260507012049 | 66 | 0 | 0.0 | 0.0 | 0.00 | 0.02 | 0.02 | 83 | 1011.4 |
| 20260507011601 | 66 | 0 | 0.0 | 0.0 | 0.00 | 0.02 | 0.02 | 83 | 1011.2 |
| 20260507011049 | 66 | 0 | 0.0 | 4.0 | 0.00 | 0.02 | 0.02 | 83 | 1011.2 |
| 20260507010548 | 66 | 0 | 0.0 | 4.0 | 0.00 | 0.02 | 0.02 | 83 | 1011.3 |
| 20260507010052 | 66 | 188 | 0.0 | 4.0 | 0.00 | 0.02 | 0.02 | 83 | 1011.4 |
| 20260507005549 | 66 | 169 | 0.0 | 3.0 | 0.00 | 0.02 | 0.02 | 83 | 1011.5 |
| 20260507005053 | 66 | 0 | 1.0 | 4.0 | 0.00 | 0.02 | 0.02 | 83 | 1011.6 |
| 20260507004553 | 66 | 0 | 0.0 | 4.0 | 0.00 | 0.02 | 0.02 | 82 | 1011.6 |
| 20260507004048 | 66 | 146 | 0.0 | 4.0 | 0.00 | 0.02 | 0.02 | 82 | 1011.5 |
| 20260507003549 | 66 | 0 | 1.0 | 5.0 | 0.00 | 0.02 | 0.02 | 82 | 1011.6 |
| 20260507003052 | 66 | 0 | 0.0 | 10.0 | 0.00 | 0.02 | 0.02 | 82 | 1011.4 |
| 20260507002548 | 66 | 151 | 2.0 | 10.0 | 0.00 | 0.02 | 0.02 | 81 | 1011.3 |
| 20260507002051 | 66 | 168 | 1.0 | 4.0 | 0.00 | 0.02 | 0.02 | 81 | 1011.3 |
| 20260507001606 | 67 | 257 | 0.0 | 8.0 | 0.00 | 0.02 | 0.02 | 81 | 1011.3 |
| 20260507001047 | 67 | 151 | 3.0 | 8.0 | 0.00 | 0.02 | 0.02 | 81 | 1011.3 |
| 20260507000551 | 67 | 163 | 1.0 | 5.0 | 0.00 | 0.02 | 0.02 | 80 | 1011.3 |
| 20260507000058 | 67 | 164 | 1.0 | 5.0 | 0.00 | 0.02 | 0.02 | 80 | 1011.5 |
| 20260506235548 | 67 | 0 | 1.0 | 4.0 | 0.00 | 0.02 | 0.02 | 80 | 1011.3 |
| 20260506235050 | 67 | 172 | 0.0 | 7.0 | 0.00 | 0.02 | 0.02 | 79 | 1011.1 |
| 20260506234555 | 67 | 0 | 1.0 | 7.0 | 0.00 | 0.02 | 0.02 | 79 | 1011.2 |
| 20260506234048 | 68 | 302 | 2.0 | 7.0 | 0.00 | 0.02 | 0.02 | 79 | 1010.9 |
| 20260506233613 | 68 | 214 | 1.0 | 8.0 | 0.00 | 0.02 | 0.02 | 79 | 1010.6 |
| 20260506233052 | 68 | 267 | 0.0 | 8.0 | 0.00 | 0.02 | 0.02 | 79 | 1010.6 |
| 20260506232550 | 68 | 116 | 2.0 | 10.0 | 0.00 | 0.02 | 0.02 | 79 | 1011.0 |
| 20260506232052 | 68 | 0 | 1.0 | 10.0 | 0.00 | 0.02 | 0.02 | 79 | 1011.2 |
| 20260506231551 | 68 | 143 | 2.0 | 8.0 | 0.00 | 0.02 | 0.02 | 79 | 1011.2 |
| 20260506231052 | 68 | 141 | 3.0 | 8.0 | 0.00 | 0.02 | 0.02 | 78 | 1011.2 |
| 20260506230550 | 68 | 115 | 2.0 | 9.0 | 0.00 | 0.02 | 0.02 | 78 | 1011.2 |
| 20260506230053 | 68 | 186 | 2.0 | 10.0 | 0.00 | 0.02 | 0.02 | 77 | 1011.2 |
| 20260506225550 | 69 | 228 | 2.0 | 10.0 | 0.00 | 0.02 | 0.02 | 77 | 1011.0 |
| 20260506225049 | 69 | 146 | 3.0 | 10.0 | 0.00 | 0.02 | 0.02 | 76 | 1010.8 |
| 20260506224554 | 69 | 194 | 4.0 | 10.0 | 0.00 | 0.02 | 0.02 | 76 | 1010.7 |
| 20260506224049 | 69 | 300 | 3.0 | 10.0 | 0.00 | 0.02 | 0.02 | 76 | 1010.8 |
| 20260506223548 | 69 | 98 | 3.0 | 10.0 | 0.00 | 0.02 | 0.02 | 76 | 1010.5 |
| 20260506223054 | 69 | 158 | 4.0 | 13.0 | 0.00 | 0.02 | 0.02 | 76 | 1010.4 |
| 20260506222548 | 69 | 191 | 4.0 | 13.0 | 0.00 | 0.02 | 0.02 | 76 | 1010.4 |
| 20260506222052 | 69 | 201 | 3.0 | 13.0 | 0.00 | 0.02 | 0.02 | 76 | 1010.6 |
| 20260506221553 | 69 | 270 | 3.0 | 13.0 | 0.00 | 0.02 | 0.02 | 77 | 1010.4 |
| 20260506221048 | 69 | 181 | 4.0 | 10.0 | 0.00 | 0.02 | 0.02 | 76 | 1010.4 |
| 20260506220548 | 69 | 159 | 3.0 | 12.0 | 0.00 | 0.02 | 0.02 | 76 | 1010.4 |
| 20260506220106 | 69 | 191 | 3.0 | 12.0 | 0.00 | 0.02 | 0.02 | 76 | 1010.6 |
| 20260506215548 | 69 | 165 | 4.0 | 15.0 | 0.00 | 0.02 | 0.02 | 77 | 1010.6 |
| 20260506215049 | 69 | 163 | 6.0 | 15.0 | 0.00 | 0.02 | 0.02 | 76 | 1010.4 |
| 20260506214552 | 69 | 144 | 4.0 | 13.0 | 0.00 | 0.02 | 0.02 | 75 | 1010.5 |
| 20260506214050 | 69 | 165 | 3.0 | 13.0 | 0.00 | 0.02 | 0.02 | 75 | 1010.7 |
| 20260506213553 | 70 | 208 | 4.0 | 15.0 | 0.00 | 0.02 | 0.02 | 75 | 1010.5 |
| 20260506213100 | 70 | 257 | 5.0 | 15.0 | 0.00 | 0.02 | 0.02 | 74 | 1010.5 |
| 20260506212549 | 70 | 165 | 4.0 | 9.0 | 0.00 | 0.02 | 0.02 | 74 | 1010.2 |
| 20260506212050 | 71 | 171 | 5.0 | 12.0 | 0.00 | 0.02 | 0.02 | 73 | 1010.0 |